Orbital Elements at Epoch 2459200.5 (2020-Dec-17.0) TDB
Reference: JPL 25 (heliocentric ecliptic J2000)
Element | Value | Uncertainty (1-sigma) | Units |
e | .06926162303732568 | 4.5833e-08 | |
a | 2.951308495178228 | 2.1228e-08 | au |
q | 2.746896078718337 | 1.331e-07 | au |
i | 11.40980103583435 | 4.9958e-06 | deg |
node | 340.7621249183888 | 2.0501e-05 | deg |
peri | 52.95515077358402 | 4.0952e-05 | deg |
M | 160.3007130587646 | 3.4135e-05 | deg |
tp | 2458375.881085318550 (2018-Sep-14.38108532) | 0.00017606 | TDB |
period | 1851.911969826954 5.07 | 1.9981e-05 5.47e-08 | d yr |
n | .1943936892603157 | 2.0973e-09 | deg/d |
Q | 3.15572091163812 | 2.2698e-08 | au |
|
| | Orbit Determination Parameters
Additional Information
|